Location: Chivres
(49.3956°N, 3.4356°E)
Time: 13:18:12
(UTC+00:00)

Daily predictions for brighter satellites

Satellite Brightness Start Highest point End
(mag) Time Altitude Azimuth Time Altitude Azimuth Time Altitude Azimuth
CZ-4C R/B 3.4 20:29:56 10° NNE 20:34:06 81° ESE 20:38:14 10° SSW
Cosmos 1980 Rocket 4.1 20:29:48 10° NW 20:34:23 26° WSW 20:38:56 10° SSW
ATLAS 2AS CENTAUR R/B 3.0 20:29:58 10° NW 20:36:49 63° NE 20:43:25 10° ESE
Cosmos 2322 Rocket 2.4 20:31:12 10° NNW 20:36:51 64° ENE 20:42:30 10° SE
Meteor 1-22 Rocket 4.4 20:32:09 10° N 20:37:48 72° ENE 20:43:39 10° SSE
BREEZE-M DEB (TANK) 3.5 20:36:36 10° SW 20:40:07 52° SE 20:51:33 10° ENE
COSMOS 2406 4.0 20:36:01 10° SW 20:41:42 59° WNW 20:47:23 10° NNE
Meteor 2-10 Rocket 3.9 20:36:17 10° N 20:41:51 60° ENE 20:47:09 10° SSE
Cosmos 1674 4.2 20:39:58 10° SW 20:43:09 34° WNW 20:46:22 10° N
ARGOS Delta rocket 3.9 20:39:34 10° S 20:44:00 69° W 20:48:24 10° NNW
Cosmos 1733 Rocket 3.7 20:44:29 10° N 20:48:42 42° ENE 20:52:54 10° SE
SL-4 R/B 2.4 20:45:06 10° W 20:48:52 62° N 20:52:55 10° ENE
Cosmos 2278 4.2 20:43:55 10° NW 20:49:32 58° WSW 20:55:06 10° S
Cosmos 1300 2.8 20:50:25 10° N 20:53:55 52° ENE 20:57:20 10° SSE
S3M 4.1 20:47:46 10° N 20:54:12 90° WSW 21:00:31 10° S
Ariane Rocket 3.1 20:49:26 10° SSE 20:54:30 75° ENE 20:59:36 10° NNW
USA 281 4.4 20:49:07 10° ESE 20:54:47 32° NE 21:00:27 10° NNW
Timation 1 Rocket 4.4 20:50:34 10° SSW 20:56:25 64° ESE 21:02:19 10° NE
SL-27 R/B 3.0 20:54:33 10° SSE 20:56:57 26° ESE 20:59:22 10° NE
Okean-O 4.2 20:53:42 10° SSW 20:57:39 32° W 21:01:38 10° NNW
Cosmos 1441 Rocket 4.4 20:55:24 10° NNW 20:58:46 37° W 21:02:08 10° SSW
Cosmos 1400 Rocket 2.7 20:56:51 10° S 21:00:43 83° E 21:04:35 10° NNE
Cosmos 2219 Rocket 2.9 20:55:58 10° NNW 21:01:24 45° NE 21:06:49 10° SE
COSMOS 2428 4.2 20:58:01 10° NNW 21:02:50 27° NE 21:07:38 10° ESE
BREEZE-M DEB (TANK) 1.9 21:02:05 10° W 21:04:06 53° SSW 21:06:53 10° ESE
Cosmos 1356 Rocket 3.7 21:00:07 10° S 21:04:10 50° E 21:08:15 10° NNE
Cosmos 2266 Rocket 4.1 20:59:31 10° S 21:05:52 88° WNW 21:12:20 10° N
USA 245 3.8 21:02:46 10° S 21:06:19 60° W 21:10:48 10° NNW
ATLAS CENTAUR R/B 1.2 21:03:27 10° SSW 21:06:47 45° ESE 21:10:14 10° NE
Cosmos 1850 Rocket 4.0 21:03:40 10° S 21:08:49 64° ESE 21:13:59 10° NNE
Cosmos 1655 Rocket 4.1 21:05:06 10° S 21:11:28 74° E 21:17:52 10° NNE
Meteor 1-4 Rocket 3.4 21:13:06 15° SE 21:14:51 25° E 21:17:24 10° NE
Cosmos 2228 Rocket 3.2 21:10:39 10° S 21:15:10 71° E 21:19:45 10° NNE
MOS 1 Rocket 3.8 21:10:44 10° S 21:16:08 76° WSW 21:21:26 10° NNW
Okean O Rocket 4.3 21:15:13 10° WSW 21:17:06 12° W 21:18:59 10° WNW
Cosmos 1953 3.4 21:14:45 10° N 21:18:09 29° ENE 21:20:51 14° SE
Cosmos 1315 Rocket 3.9 21:17:28 14° SE 21:20:07 28° E 21:23:33 10° NNE
Cosmos 968 Rocket 3.6 21:17:16 10° S 21:22:18 58° ESE 21:27:24 10° NNE
SPOT 3 Rocket 3.8 21:18:20 10° S 21:23:28 70° WSW 21:28:39 10° NNW
Spot 1 4.4 21:19:17 10° NNE 21:23:46 55° ESE 21:28:26 10° S
SeaSat 1 3.3 21:19:09 10° S 21:23:49 44° WSW 21:28:32 10° NW
Cosmos 2360 Rocket 2.3 21:20:55 10° NNW 21:26:36 75° WSW 21:31:30 14° SSE
Cosmos 1741 Rocket 4.0 21:24:02 10° SSW 21:29:19 87° ESE 21:34:40 10° NNE
Cosmos 1242 Rocket 4.0 21:29:30 13° ESE 21:30:08 14° E 21:31:39 10° ENE
BlueWalker 3 3.4 21:31:50 17° SE 21:31:51 17° SE 21:34:18 10° E
MetOp-A 4.1 21:28:25 14° SSE 21:32:54 79° ENE 21:38:10 10° NNW
Cosmos 1814 Rocket 4.0 21:27:36 10° NNW 21:32:57 84° ENE 21:37:16 16° SSE
Landsat 4 4.4 21:30:19 11° S 21:33:28 41° W 21:36:46 10° NNW
COSMOS 2455 4.4 21:35:30 14° SE 21:37:55 17° ESE 21:41:37 10° ENE
SL-16 R/B 3.5 21:33:17 10° NW 21:38:15 32° WSW 21:43:12 10° SSW
Landsat 5 3.3 21:36:21 10° NNE 21:40:22 75° ESE 21:44:11 12° S
USA 234 3.2 21:34:13 10° ENE 21:40:48 85° SE 21:47:22 10° SW
Cosmos 2333 Rocket 2.5 21:36:49 10° NW 21:42:31 63° WSW 21:47:09 16° S
SL-14 R/B 4.0 21:40:18 10° SSW 21:43:59 50° WNW 21:47:43 10° N
Cosmos 1703 Rocket 4.3 21:43:33 18° SSE 21:46:20 37° E 21:50:27 10° NNE
Cosmos 1862 Rocket 3.7 21:42:50 10° SSW 21:47:13 76° W 21:51:41 10° N
Cosmos 1346 Rocket 3.7 21:44:16 10° NNW 21:47:57 42° W 21:51:09 13° SSW
Okean 3 3.4 21:46:07 12° S 21:49:54 85° WNW 21:54:06 10° N
DNEPR-1 R/B 4.4 21:43:23 10° NW 21:50:15 82° SW 21:54:25 18° SSE
Cosmos 1455 2.1 21:49:36 10° N 21:53:05 60° ENE 21:55:03 24° SSE
Cosmos 1408 4.2 21:55:12 13° E 21:55:44 13° E 21:57:18 10° NE
Cosmos 1833 4.2 21:51:23 10° SSW 21:57:01 89° ESE 22:02:41 10° NNE
EXPRESS MD2 1.9 21:55:31 10° W 21:57:55 76° N 21:59:45 13° E
CZ-4C R/B 3.4 21:58:28 15° ESE 21:59:23 16° ESE 22:02:27 10° ENE
RESURS DK-1 4.4 21:56:47 10° WNW 21:59:39 19° WSW 22:02:30 10° SSW
H-2A R/B 3.7 21:58:41 16° ESE 22:01:28 33° ENE 22:05:18 10° N
Cosmos 2237 Rocket 3.7 21:56:45 10° NNW 22:01:43 30° NE 22:06:39 10° ESE
Cosmos 1932 4.4 21:57:17 10° SSW 22:03:36 73° SE 22:09:52 10° NE
SJ 16-02 1.4 22:00:35 10° SSW 22:04:53 78° WNW 22:09:15 10° NNE
Cosmos 2322 3.8 21:59:49 10° NNW 22:05:32 74° ENE 22:09:35 20° SE
Terra 3.8 22:01:56 10° SW 22:05:34 22° W 22:09:15 10° NW
CZ-2C R/B 3.9 22:02:34 10° NNE 22:06:53 51° E 22:09:29 22° SSE
Aureole 3 4.2 22:07:01 11° SSW 22:10:49 55° WNW 22:15:46 10° N
Cosmos 2322 Rocket 3.8 22:15:57 10° NW 22:20:25 24° WSW 22:24:47 10° SSW
ARIANE 5 R/B 2.5 22:23:17 25° SSE 22:25:44 86° WSW 22:30:06 10° NNW
NOSS 5 (C) 4.1 22:23:32 10° NW 22:26:43 90° NNE 22:27:59 34° SE
ATLAS 2AS CENTAUR R/B 3.5 22:21:19 10° NW 22:27:23 36° WSW 22:31:35 18° S
SL-4 R/B 2.0 22:23:53 10° WNW 22:27:52 83° NNE 22:31:56 11° ESE
Cosmos 2297 Rocket 3.4 22:27:17 20° SE 22:29:29 25° ESE 22:34:02 10° NE
Okean 1-7 3.7 22:30:05 14° SSW 22:33:35 49° WNW 22:37:49 10° N
USA 281 3.3 22:34:22 22° SSE 22:38:50 72° WSW 22:45:27 10° NNW
Cosmos 1745 Rocket 4.0 22:34:59 21° S 22:39:25 79° E 22:45:48 10° NNE
Cosmos 1908 Rocket 4.3 22:36:53 10° NNW 22:41:01 43° W 22:43:32 21° SSW
GP-B 3.3 22:36:49 10° N 22:41:12 66° W 22:43:51 23° SSW
Cosmos 1782 Rocket 3.5 22:39:39 10° NNW 22:43:59 76° W 22:46:09 29° S
Spot 4 3.9 22:41:21 26° SSE 22:44:01 75° ENE 22:48:51 10° N
ATLAS CENTAUR R/B 3.4 22:41:39 10° W 22:44:37 24° NW 22:47:40 10° NNE
Cosmos 2219 Rocket 3.1 22:40:07 10° NW 22:45:16 37° WSW 22:48:35 20° SSW
Nadezhda 1 Rocket 4.1 22:40:09 10° NNW 22:46:27 74° W 22:50:31 23° S
COSMOS 2428 2.8 22:41:55 10° NNW 22:47:36 70° WSW 22:50:54 26° SSE
NOSS 8 (F) 4.5 22:47:50 30° SSW 22:49:27 59° SE 22:52:33 10° NE
Meteor 2-5 Rocket 4.4 22:46:15 24° SSE 22:49:29 45° E 22:55:00 10° NNE
BREEZE-M DEB (TANK) 2.9 22:48:16 10° WNW 22:52:00 41° N 22:54:00 10° ENE
Cosmos 1953 3.9 22:50:43 10° NW 22:53:51 24° W 22:55:58 16° SW
Cosmos 2098 Rocket 4.4 22:48:12 10° N 22:54:45 59° ENE 22:58:50 23° SSE
H-2A R/B 3.7 22:54:38 10° NE 22:57:49 20° E 22:59:07 18° ESE
PSLV R/B 4.1 22:55:30 10° N 22:59:28 63° WNW 23:01:43 24° SSW
Cosmos 1300 Rocket 3.8 22:56:54 10° NNW 23:01:09 61° W 23:03:09 29° SSW
Cosmos 1242 Rocket 3.8 23:00:40 18° WSW 23:01:55 25° WNW 23:04:17 10° NNW
Cosmos 304 Rocket 4.0 23:03:17 30° SSE 23:05:20 53° ESE 23:09:59 10° NNE
Cosmos 158 Rocket 4.4 23:02:27 10° NNW 23:07:37 54° WSW 23:10:13 27° S
Cosmos 2151 Rocket 4.3 23:05:04 10° N 23:09:18 44° ENE 23:11:26 25° SE
BlueWalker 3 1.7 23:06:00 11° WSW 23:09:31 76° SSE 23:13:16 10° ENE
Cosmos 2360 Rocket 4.4 23:07:13 10° WNW 23:09:35 13° W 23:11:57 10° WSW
Cosmos 405 Rocket 3.0 23:07:00 10° N 23:10:42 56° ENE 23:12:07 33° SE
Okean 2 Rocket 3.7 23:11:32 10° N 23:15:52 48° ENE 23:18:04 26° SE
ALOS 2 2.6 23:14:27 33° S 23:16:24 77° WSW 23:20:48 10° NNW
Cosmos 546 4.5 23:16:01 10° WNW 23:19:52 71° SSW 23:22:00 25° ESE
Cosmos 1674 Rocket 4.3 23:20:04 28° SE 23:21:44 41° E 23:25:50 10° NNE
Cosmos 1378 Rocket 4.0 23:20:47 31° SSE 23:22:28 49° E 23:26:43 10° NNE
COSMOS 2455 2.8 23:18:34 20° SSW 23:22:57 84° ESE 23:29:02 10° NE
USA 234 4.1 23:17:18 10° ENE 23:23:37 53° NNW 23:29:55 10° W
NOSS 0 Rocket 4.2 23:20:18 10° NW 23:26:22 55° WSW 23:29:40 27° S
CENTAUR R/B 3.4 23:24:42 23° SE 23:26:50 29° ESE 23:32:30 10° NE
Cosmos 1408 3.5 23:27:13 24° WSW 23:28:10 30° WNW 23:30:53 10° N
Cosmos 773 Rocket 4.1 23:24:29 10° NNW 23:29:35 63° WSW 23:32:01 30° S
Cosmos 1703 3.6 23:34:51 32° SW 23:36:16 54° WNW 23:39:54 10° N
H-2A R/B 3.8 23:34:40 22° SW 23:36:24 30° W 23:40:10 10° NW
Cosmos 2221 Rocket 3.9 23:34:53 32° SSE 23:36:41 53° E 23:41:01 10° NNE
Cosmos 1892 2.9 23:37:30 40° SE 23:38:20 51° E 23:41:46 10° NNE
Cosmos 1709 Rocket 4.4 23:34:37 20° SSW 23:39:00 59° WNW 23:45:18 10° N
SL-16 R/B 3.1 23:33:57 10° NNW 23:39:28 46° NE 23:44:44 11° SE
Cosmos 1174 4.0 23:34:40 10° NW 23:39:45 85° SW 23:41:41 32° SSE
Sich 1 Rocket 3.5 23:37:05 10° N 23:41:30 84° ENE 23:43:22 34° SSE
SJ 16-02 4.1 23:42:08 10° WNW 23:44:02 13° NW 23:45:56 10° NNW
Cosmos 2237 Rocket 2.3 23:40:35 10° NW 23:46:10 60° WSW 23:48:59 29° S
Cosmos 1777 Rocket 4.0 23:43:34 28° SSW 23:46:26 87° ESE 23:51:46 10° NNE
Cosmos 1503 Rocket 4.1 23:43:28 25° SSW 23:46:37 81° WNW 23:51:57 10° NNE
CZ-4C R/B 1.9 23:43:30 21° SW 23:46:39 84° NW 23:52:30 10° NE
BREEZE-M DEB (TANK) 2.8 23:39:20 10° W 23:48:36 81° SSW 23:51:37 10° ESE
Cosmos 2227 Rocket 2.4 23:50:16 29° S 23:53:03 57° ESE 23:58:37 10° NE
GEOS 3 Rocket 4.1 23:49:55 10° NE 23:54:49 42° ESE 23:56:49 29° S
